When you browse on this site, cookies collect data to enhance your experience and personalize the content and advertising you see.
Visit our Privacy Policy to learn more. By continuing to use the site, you agree to this use of cookies and data.
  • In Hungary
  • List of Countries
  • For 7 days
  • Water Temperature
  • Satellite Maps
  • Weather Map
  • News
  • Weather Widgets
  • user-avatar
    Login

    Hourly Weather Cucujaes

    Today, 21 July, Sunday

    Time Temperature Precipitation Wind Pressure Humidity
    00:00 +16°C° 0 mm 2 mps 748 mmHg 83%
    01:00 +16°C° 0 mm 2 mps 748 mmHg 83%
    02:00 +15°C° 0 mm 1 mps 748 mmHg 83%
    03:00 +16°C° 0 mm 1 mps 748 mmHg 83%
    04:00 +16°C° 0 mm 1 mps 748 mmHg 82%
    05:00 +16°C° 0 mm 1 mps 748 mmHg 82%
    06:00 +19°C° 0 mm 2 mps 748 mmHg 72%
    07:00 +23°C° 0 mm 2 mps 748 mmHg 62%
    08:00 +26°C° 0 mm 2 mps 749 mmHg 52%
    09:00 +28°C° 0 mm 3 mps 749 mmHg 47%
    10:00 +30°C° 0 mm 3 mps 748 mmHg 41%
    11:00 +33°C° 0 mm 4 mps 748 mmHg 36%
    12:00 +32°C° 0 mm 4 mps 748 mmHg 38%
    13:00 +30°C° 0 mm 5 mps 748 mmHg 40%
    14:00 +30°C° 0 mm 6 mps 748 mmHg 42%
    15:00 +29°C° 0 mm 5 mps 747 mmHg 43%
    16:00 +28°C° 0 mm 5 mps 747 mmHg 45%
    17:00 +27°C° 0 mm 4 mps 747 mmHg 47%
    18:00 +25°C° 0 mm 4 mps 747 mmHg 56%
    19:00 +21°C° 0 mm 3 mps 748 mmHg 66%
    20:00 +19°C° 0 mm 2 mps 748 mmHg 75%
    21:00 +19°C° 0 mm 2 mps 748 mmHg 75%
    22:00 +20°C° 0 mm 1 mps 748 mmHg 75%
    23:00 +19°C° 0 mm 1 mps 747 mmHg 75%

    Tomorrow, 22 July, Monday

    Time Temperature Precipitation Wind Pressure Humidity
    00:00 +19°C° 0 mm 1 mps 747 mmHg 75%
    01:00 +19°C° 0 mm 1 mps 747 mmHg 74%
    02:00 +19°C° 0 mm 1 mps 747 mmHg 74%
    03:00 +19°C° 0 mm 1 mps 747 mmHg 74%
    04:00 +19°C° 0 mm 1 mps 747 mmHg 74%
    05:00 +19°C° 0 mm 1 mps 747 mmHg 74%
    06:00 +23°C° 0 mm 1 mps 747 mmHg 64%
    07:00 +26°C° 0 mm 1 mps 747 mmHg 54%
    08:00 +29°C° 0 mm 1 mps 747 mmHg 43%
    09:00 +30°C° 0 mm 2 mps 747 mmHg 40%
    10:00 +32°C° 0 mm 2 mps 747 mmHg 37%
    11:00 +34°C° 0 mm 3 mps 747 mmHg 33%
    12:00 +34°C° 0 mm 3 mps 746 mmHg 34%
    13:00 +34°C° 0 mm 3 mps 746 mmHg 36%
    14:00 +33°C° 0 mm 3 mps 746 mmHg 37%
    15:00 +31°C° 0 mm 3 mps 745 mmHg 41%
    16:00 +30°C° 0 mm 3 mps 745 mmHg 45%
    17:00 +28°C° 0 mm 2 mps 745 mmHg 48%
    18:00 +26°C° 0 mm 2 mps 745 mmHg 60%
    19:00 +23°C° 0 mm 1 mps 746 mmHg 71%
    20:00 +20°C° 0 mm 1 mps 746 mmHg 83%
    21:00 +20°C° 0 mm 1 mps 746 mmHg 83%
    22:00 +20°C° 0 mm 1 mps 746 mmHg 82%
    23:00 +20°C° 0 mm 1 mps 745 mmHg 82%

    Day after tomorrow, 23 July, Tuesday

    Time Temperature Precipitation Wind Pressure Humidity
    00:00 +20°C° 0 mm 1 mps 745 mmHg 83%
    01:00 +19°C° 0 mm 1 mps 745 mmHg 83%
    02:00 +19°C° 0 mm 1 mps 745 mmHg 83%
    03:00 +19°C° 0 mm 1 mps 745 mmHg 85%
    04:00 +19°C° 0 mm 1 mps 745 mmHg 87%
    05:00 +19°C° 0 mm 1 mps 744 mmHg 89%
    06:00 +21°C° 0 mm 1 mps 745 mmHg 79%
    07:00 +23°C° 0 mm 1 mps 745 mmHg 68%
    08:00 +26°C° 0 mm 1 mps 745 mmHg 58%
    09:00 +27°C° 0 mm 2 mps 745 mmHg 55%
    10:00 +28°C° 0 mm 2 mps 745 mmHg 52%
    11:00 +29°C° 0 mm 3 mps 745 mmHg 48%
    12:00 +29°C° 0 mm 3 mps 745 mmHg 48%
    13:00 +29°C° 0 mm 3 mps 745 mmHg 48%
    14:00 +29°C° 0 mm 4 mps 745 mmHg 47%
    15:00 +28°C° 0 mm 4 mps 744 mmHg 49%
    16:00 +27°C° 0 mm 3 mps 744 mmHg 51%
    17:00 +26°C° 0 mm 3 mps 744 mmHg 53%
    18:00 +22°C° 0 mm 3 mps 745 mmHg 62%
    19:00 +20°C° 0 mm 2 mps 745 mmHg 71%
    20:00 +18°C° 0 mm 2 mps 745 mmHg 80%
    21:00 +19°C° 0 mm 1 mps 745 mmHg 81%
    22:00 +19°C° 0 mm 1 mps 745 mmHg 81%
    23:00 +18°C° 0 mm 1 mps 745 mmHg 82%

    24 July, Wednesday

    Time Temperature Precipitation Wind Pressure Humidity
    00:00 +18°C° 0 mm 1 mps 745 mmHg 81%
    01:00 +18°C° 0 mm 1 mps 745 mmHg 80%
    02:00 +16°C° 0 mm 1 mps 744 mmHg 79%
    03:00 +16°C° 0 mm 1 mps 744 mmHg 77%
    04:00 +18°C° 0 mm 1 mps 744 mmHg 75%
    05:00 +18°C° 0 mm 1 mps 744 mmHg 73%
    06:00 +21°C° 0 mm 1 mps 744 mmHg 64%
    07:00 +23°C° 0 mm 1 mps 745 mmHg 55%
    08:00 +26°C° 0 mm 1 mps 745 mmHg 46%
    09:00 +27°C° 0 mm 1 mps 745 mmHg 42%
    10:00 +29°C° 0 mm 2 mps 745 mmHg 38%
    11:00 +31°C° 0 mm 2 mps 744 mmHg 34%
    12:00 +30°C° 0 mm 3 mps 744 mmHg 38%
    13:00 +30°C° 0 mm 3 mps 744 mmHg 42%
    14:00 +30°C° 0 mm 4 mps 743 mmHg 45%
    15:00 +28°C° 0 mm 3 mps 743 mmHg 52%
    16:00 +27°C° 0 mm 2 mps 743 mmHg 59%
    17:00 +26°C° 0 mm 2 mps 743 mmHg 66%
    18:00 +24°C° 0 mm 1 mps 744 mmHg 74%
    19:00 +22°C° 0 mm 1 mps 744 mmHg 82%
    20:00 +18°C° 0 mm 0 mps 744 mmHg 91%
    21:00 +18°C° 0 mm 0 mps 744 mmHg 91%
    22:00 +18°C° 0 mm 0 mps 744 mmHg 91%
    23:00 +20°C° 0 mm 1 mps 744 mmHg 91%

    25 July, Thursday

    Time Temperature Precipitation Wind Pressure Humidity
    00:00 +19°C° 0 mm 1 mps 743 mmHg 92%
    01:00 +19°C° 0 mm 1 mps 743 mmHg 92%
    02:00 +19°C° 0 mm 1 mps 743 mmHg 92%
    03:00 +19°C° 0 mm 1 mps 743 mmHg 93%
    04:00 +19°C° 0 mm 1 mps 744 mmHg 93%
    05:00 +18°C° 0 mm 2 mps 744 mmHg 93%
    06:00 +20°C° 0 mm 2 mps 744 mmHg 85%
    07:00 +21°C° 0 mm 2 mps 744 mmHg 77%
    08:00 +24°C° 0 mm 3 mps 745 mmHg 68%
    09:00 +25°C° 0 mm 3 mps 745 mmHg 61%
    10:00 +27°C° 0 mm 4 mps 745 mmHg 55%
    11:00 +28°C° 0 mm 5 mps 745 mmHg 48%
    12:00 +26°C° 0 mm 4 mps 745 mmHg 58%
    13:00 +25°C° 0 mm 4 mps 745 mmHg 69%
    14:00 +22°C° 0 mm 3 mps 745 mmHg 79%
    15:00 +22°C° 0 mm 3 mps 745 mmHg 77%
    16:00 +22°C° 0 mm 3 mps 745 mmHg 74%
    17:00 +23°C° 0 mm 2 mps 746 mmHg 71%
    18:00 +21°C° 0 mm 2 mps 746 mmHg 78%
    19:00 +19°C° 0 mm 2 mps 747 mmHg 85%
    20:00 +17°C° 0 mm 2 mps 747 mmHg 92%
    21:00 +17°C° 0 mm 2 mps 747 mmHg 93%
    22:00 +17°C° 0 mm 2 mps 747 mmHg 93%
    23:00 +16°C° 0 mm 2 mps 747 mmHg 94%

    26 July, Friday

    Time Temperature Precipitation Wind Pressure Humidity
    00:00 +16°C° 0 mm 2 mps 747 mmHg 94%
    01:00 +16°C° 0 mm 2 mps 747 mmHg 94%
    02:00 +16°C° 0 mm 2 mps 747 mmHg 94%
    03:00 +16°C° 0 mm 2 mps 747 mmHg 94%
    04:00 +15°C° 0 mm 2 mps 747 mmHg 93%
    05:00 +15°C° 0 mm 2 mps 747 mmHg 93%
    06:00 +18°C° 0 mm 2 mps 748 mmHg 82%
    07:00 +20°C° 0 mm 3 mps 748 mmHg 70%
    08:00 +22°C° 0 mm 3 mps 748 mmHg 58%
    09:00 +25°C° 0 mm 4 mps 748 mmHg 52%
    10:00 +26°C° 0 mm 5 mps 748 mmHg 46%
    11:00 +27°C° 0 mm 5 mps 748 mmHg 41%
    12:00 +27°C° 0 mm 6 mps 748 mmHg 42%
    13:00 +27°C° 0 mm 6 mps 747 mmHg 42%
    14:00 +26°C° 0 mm 6 mps 747 mmHg 43%
    15:00 +24°C° 0 mm 6 mps 747 mmHg 47%
    16:00 +23°C° 0 mm 5 mps 747 mmHg 51%
    17:00 +22°C° 0 mm 5 mps 747 mmHg 55%
    18:00 +20°C° 0 mm 5 mps 747 mmHg 64%
    19:00 +18°C° 0 mm 4 mps 747 mmHg 72%
    20:00 +15°C° 0 mm 4 mps 748 mmHg 80%
    21:00 +16°C° 0 mm 3 mps 748 mmHg 81%
    22:00 +16°C° 0 mm 3 mps 748 mmHg 82%
    23:00 +14°C° 0 mm 3 mps 748 mmHg 83%
    Show more